Time,TemperatureF,DewpointF,PressureIn,WindDirection,WindDirectionDegrees,WindSpeedMPH,WindSpeedGustMPH,Humidity,HourlyPrecipIn,Conditions,Clouds,dailyrainin,SoftwareType,DateUTC
2013-02-17 00:02:00,9.0,7.0,30.11,SSW,205,0.0,3.0,92,0.00,,,0.00,,2013-02-17 06:02:00,
2013-02-17 00:11:00,9.0,7.0,30.11,SSW,205,0.0,3.0,92,0.00,,,0.00,,2013-02-17 06:11:00,
2013-02-17 00:21:00,9.0,7.0,30.10,East,80,0.0,0.0,91,0.00,,,0.00,,2013-02-17 06:21:00,
2013-02-17 00:31:00,9.0,7.0,30.10,SSW,192,0.0,3.0,91,0.00,,,0.00,,2013-02-17 06:31:00,
2013-02-17 00:41:00,9.0,7.0,30.10,SSW,192,0.0,3.0,91,0.00,,,0.00,,2013-02-17 06:41:00,
2013-02-17 00:52:00,9.0,7.0,30.10,SE,133,0.0,0.0,90,0.00,,,0.00,,2013-02-17 06:52:00,
2013-02-17 01:01:00,10.0,8.0,30.11,SSE,163,0.0,0.0,90,0.00,,,0.00,,2013-02-17 07:01:00,
2013-02-17 01:11:00,10.0,8.0,30.11,SSE,163,0.0,0.0,90,0.00,,,0.00,,2013-02-17 07:11:00,
2013-02-17 01:21:00,10.0,8.0,30.11,SSE,163,0.0,0.0,90,0.00,,,0.00,,2013-02-17 07:21:00,
2013-02-17 01:31:00,10.0,8.0,30.11,SSE,163,0.0,0.0,90,0.00,,,0.00,,2013-02-17 07:31:00,
2013-02-17 01:41:00,10.0,8.0,30.11,SSE,163,0.0,0.0,90,0.00,,,0.00,,2013-02-17 07:41:00,
2013-02-17 01:52:00,10.0,8.0,30.11,SSE,163,0.0,0.0,90,0.00,,,0.00,,2013-02-17 07:52:00,
2013-02-17 02:01:00,10.0,8.0,30.10,SSE,163,0.0,0.0,90,0.00,,,0.00,,2013-02-17 08:01:00,
2013-02-17 02:11:00,10.0,8.0,30.10,SSE,163,0.0,0.0,90,0.00,,,0.00,,2013-02-17 08:11:00,
2013-02-17 02:21:00,10.0,8.0,30.09,SSE,163,0.0,0.0,91,0.00,,,0.00,,2013-02-17 08:21:00,
2013-02-17 02:31:00,9.0,7.0,30.10,SE,127,0.0,0.0,91,0.00,,,0.00,,2013-02-17 08:31:00,
2013-02-17 02:42:00,9.0,7.0,30.10,SE,127,0.0,0.0,91,0.00,,,0.00,,2013-02-17 08:42:00,
2013-02-17 02:52:00,9.0,7.0,30.10,SE,130,0.0,0.0,91,0.00,,,0.00,,2013-02-17 08:52:00,
2013-02-17 03:01:00,9.0,7.0,30.09,SE,130,0.0,0.0,91,0.00,,,0.00,,2013-02-17 09:01:00,
2013-02-17 03:11:00,9.0,7.0,30.09,SE,130,0.0,0.0,91,0.00,,,0.00,,2013-02-17 09:11:00,
2013-02-17 03:21:00,9.0,7.0,30.09,SE,142,4.0,6.0,92,0.00,,,0.00,,2013-02-17 09:21:00,
2013-02-17 03:31:00,9.0,7.0,30.08,South,180,4.0,7.0,91,0.00,,,0.00,,2013-02-17 09:31:00,
2013-02-17 03:41:00,9.0,7.0,30.08,South,180,4.0,7.0,91,0.00,,,0.00,,2013-02-17 09:41:00,
2013-02-17 03:52:00,9.0,7.0,30.08,South,184,0.0,7.0,91,0.00,,,0.00,,2013-02-17 09:52:00,
2013-02-17 04:01:00,9.0,7.0,30.08,South,177,0.0,5.0,92,0.00,,,0.00,,2013-02-17 10:01:00,
2013-02-17 04:11:00,9.0,7.0,30.08,South,188,0.0,0.0,92,0.00,,,0.00,,2013-02-17 10:11:00,
2013-02-17 04:21:00,9.0,7.0,30.08,South,188,0.0,0.0,92,0.00,,,0.00,,2013-02-17 10:21:00,
2013-02-17 04:31:00,8.0,6.0,30.08,SE,143,0.0,0.0,93,0.00,,,0.00,,2013-02-17 10:31:00,
2013-02-17 04:41:00,8.0,6.0,30.08,SE,143,0.0,0.0,93,0.00,,,0.00,,2013-02-17 10:41:00,
2013-02-17 04:52:00,8.0,7.0,30.07,SE,143,0.0,0.0,94,0.00,,,0.00,,2013-02-17 10:52:00,
2013-02-17 05:01:00,8.0,7.0,30.07,SE,143,0.0,0.0,94,0.00,,,0.00,,2013-02-17 11:01:00,
2013-02-17 05:11:00,8.0,7.0,30.07,SE,143,0.0,0.0,94,0.00,,,0.00,,2013-02-17 11:11:00,
2013-02-17 05:21:00,8.0,7.0,30.07,ESE,118,0.0,0.0,94,0.00,,,0.00,,2013-02-17 11:21:00,
2013-02-17 05:32:00,8.0,7.0,30.06,ESE,111,2.0,6.0,95,0.00,,,0.00,,2013-02-17 11:32:00,
2013-02-17 05:41:00,8.0,7.0,30.06,ESE,111,2.0,6.0,95,0.00,,,0.00,,2013-02-17 11:41:00,
2013-02-17 05:52:00,8.0,7.0,30.06,SE,125,0.0,0.0,95,0.00,,,0.00,,2013-02-17 11:52:00,
2013-02-17 06:03:00,8.0,7.0,30.05,SE,126,0.0,0.0,95,0.00,,,0.00,,2013-02-17 12:03:00,
2013-02-17 06:11:00,8.0,7.0,30.05,SE,126,0.0,0.0,95,0.00,,,0.00,,2013-02-17 12:11:00,
2013-02-17 06:22:00,8.0,7.0,30.05,SE,126,0.0,0.0,96,0.00,,,0.00,,2013-02-17 12:22:00,
2013-02-17 06:32:00,7.0,6.0,30.05,SE,126,0.0,0.0,96,0.00,,,0.00,,2013-02-17 12:32:00,
2013-02-17 06:42:00,7.0,6.0,30.05,SE,126,0.0,0.0,96,0.00,,,0.00,,2013-02-17 12:42:00,
2013-02-17 06:52:00,6.0,5.0,30.04,SE,126,0.0,0.0,97,0.00,,,0.00,,2013-02-17 12:52:00,
2013-02-17 07:02:00,8.0,8.0,30.04,SE,126,0.0,0.0,98,0.00,,,0.00,,2013-02-17 13:02:00,
2013-02-17 07:12:00,8.0,8.0,30.04,SE,126,0.0,0.0,98,0.00,,,0.00,,2013-02-17 13:12:00,
2013-02-17 07:21:00,8.0,7.0,30.03,SE,126,0.0,0.0,97,0.00,,,0.00,,2013-02-17 13:21:00,
2013-02-17 07:32:00,10.0,9.0,30.01,ESE,119,0.0,5.0,97,0.00,,,0.00,,2013-02-17 13:32:00,
2013-02-17 07:41:00,10.0,9.0,30.01,ESE,119,0.0,5.0,97,0.00,,,0.00,,2013-02-17 13:41:00,
2013-02-17 07:52:00,10.0,9.0,30.01,South,175,0.0,0.0,97,0.00,,,0.00,,2013-02-17 13:52:00,
2013-02-17 08:01:00,11.0,10.0,30.00,South,175,0.0,0.0,97,0.00,,,0.00,,2013-02-17 14:01:00,
2013-02-17 08:11:00,11.0,10.0,30.00,South,175,0.0,0.0,97,0.00,,,0.00,,2013-02-17 14:11:00,
2013-02-17 08:21:00,12.0,11.0,29.99,South,175,0.0,0.0,96,0.00,,,0.00,,2013-02-17 14:21:00,
2013-02-17 08:32:00,13.0,12.0,29.99,South,175,0.0,0.0,95,0.00,,,0.00,,2013-02-17 14:32:00,
2013-02-17 08:42:00,13.0,12.0,29.99,South,175,0.0,0.0,95,0.00,,,0.00,,2013-02-17 14:42:00,
2013-02-17 08:53:00,14.0,13.0,29.99,South,170,0.0,0.0,94,0.00,,,0.00,,2013-02-17 14:53:00,
2013-02-17 09:01:00,17.0,15.0,29.99,WSW,244,3.0,3.0,92,0.00,,,0.00,,2013-02-17 15:01:00,
2013-02-17 09:11:00,17.0,15.0,29.99,WSW,244,3.0,3.0,92,0.00,,,0.00,,2013-02-17 15:11:00,
2013-02-17 09:21:00,17.0,15.0,29.99,WSW,244,3.0,3.0,92,0.00,,,0.00,,2013-02-17 15:21:00,
2013-02-17 09:32:00,19.0,16.0,29.98,SSW,195,0.0,0.0,89,0.00,,,0.00,,2013-02-17 15:32:00,
2013-02-17 09:41:00,19.0,16.0,29.98,SSW,195,0.0,0.0,89,0.00,,,0.00,,2013-02-17 15:41:00,
2013-02-17 09:52:00,19.0,16.0,29.97,SW,217,4.0,5.0,89,0.00,,,0.00,,2013-02-17 15:52:00,
2013-02-17 10:01:00,21.0,17.0,29.97,WSW,248,0.0,9.0,86,0.00,,,0.00,,2013-02-17 16:01:00,
2013-02-17 10:11:00,21.0,17.0,29.97,WSW,248,0.0,9.0,86,0.00,,,0.00,,2013-02-17 16:11:00,
2013-02-17 10:21:00,22.0,18.0,29.96,South,191,0.0,6.0,85,0.00,,,0.00,,2013-02-17 16:21:00,
2013-02-17 10:32:00,23.0,19.0,29.95,South,170,0.0,4.0,84,0.00,,,0.00,,2013-02-17 16:32:00,
2013-02-17 10:41:00,23.0,19.0,29.95,South,170,0.0,4.0,84,0.00,,,0.00,,2013-02-17 16:41:00,
2013-02-17 10:52:00,24.0,19.0,29.95,SW,220,0.0,8.0,82,0.00,,,0.00,,2013-02-17 16:52:00,
2013-02-17 11:02:00,25.0,19.0,29.95,WSW,243,5.0,11.0,79,0.00,,,0.00,,2013-02-17 17:02:00,
2013-02-17 11:11:00,25.0,19.0,29.95,WSW,243,5.0,11.0,79,0.00,,,0.00,,2013-02-17 17:11:00,
2013-02-17 11:21:00,26.0,20.0,29.95,WSW,241,6.0,11.0,79,0.00,,,0.00,,2013-02-17 17:21:00,
2013-02-17 11:32:00,26.0,20.0,29.94,WSW,243,7.0,11.0,79,0.00,,,0.00,,2013-02-17 17:32:00,
2013-02-17 11:41:00,26.0,20.0,29.94,WSW,243,7.0,11.0,79,0.00,,,0.00,,2013-02-17 17:41:00,
2013-02-17 11:52:00,27.0,21.0,29.94,SW,219,4.0,12.0,78,0.00,,,0.00,,2013-02-17 17:52:00,
2013-02-17 12:01:00,28.0,22.0,29.93,WSW,244,7.0,10.0,78,0.00,,,0.00,,2013-02-17 18:01:00,
2013-02-17 12:11:00,28.0,21.0,29.91,SW,222,9.0,9.0,76,0.00,,,0.00,,2013-02-17 18:11:00,
2013-02-17 12:22:00,28.0,21.0,29.91,SW,222,9.0,9.0,76,0.00,,,0.00,,2013-02-17 18:22:00,
2013-02-17 12:33:00,28.0,22.0,29.90,SSW,194,6.0,11.0,77,0.00,,,0.00,,2013-02-17 18:33:00,
2013-02-17 12:42:00,28.0,22.0,29.90,SSW,194,6.0,11.0,77,0.00,,,0.00,,2013-02-17 18:42:00,
2013-02-17 12:52:00,29.0,23.0,29.89,SW,216,11.0,15.0,77,0.00,,,0.00,,2013-02-17 18:52:00,
2013-02-17 13:01:00,29.0,22.0,29.89,SW,225,7.0,15.0,76,0.00,,,0.00,,2013-02-17 19:01:00,
2013-02-17 13:11:00,29.0,22.0,29.89,SW,225,7.0,15.0,76,0.00,,,0.00,,2013-02-17 19:11:00,
2013-02-17 13:21:00,29.0,22.0,29.87,SSW,194,4.0,14.0,76,0.00,,,0.00,,2013-02-17 19:21:00,
2013-02-17 13:32:00,29.0,22.0,29.86,SSW,208,7.0,15.0,76,0.00,,,0.00,,2013-02-17 19:32:00,
2013-02-17 13:41:00,29.0,22.0,29.86,SSW,208,7.0,15.0,76,0.00,,,0.00,,2013-02-17 19:41:00,
2013-02-17 13:52:00,29.0,23.0,29.85,WSW,239,5.0,13.0,78,0.00,,,0.00,,2013-02-17 19:52:00,
2013-02-17 14:01:00,30.0,24.0,29.84,WSW,244,5.0,14.0,78,0.00,,,0.00,,2013-02-17 20:01:00,
2013-02-17 14:11:00,30.0,24.0,29.84,WSW,244,5.0,14.0,78,0.00,,,0.00,,2013-02-17 20:11:00,
2013-02-17 14:21:00,30.0,24.0,29.83,SSW,198,6.0,15.0,77,0.00,,,0.00,,2013-02-17 20:21:00,
2013-02-17 14:32:00,30.0,24.0,29.82,South,178,4.0,10.0,78,0.00,,,0.00,,2013-02-17 20:32:00,
2013-02-17 14:42:00,30.0,24.0,29.82,South,178,4.0,10.0,78,0.00,,,0.00,,2013-02-17 20:42:00,
2013-02-17 14:52:00,30.0,24.0,29.81,WSW,251,6.0,11.0,79,0.00,,,0.00,,2013-02-17 20:52:00,
2013-02-17 15:01:00,30.0,24.0,29.80,WSW,243,9.0,16.0,79,0.00,,,0.00,,2013-02-17 21:01:00,
2013-02-17 15:11:00,30.0,24.0,29.80,WSW,243,9.0,16.0,79,0.00,,,0.00,,2013-02-17 21:11:00,
2013-02-17 15:21:00,30.0,24.0,29.80,WSW,257,6.0,16.0,78,0.00,,,0.00,,2013-02-17 21:21:00,
2013-02-17 15:31:00,30.0,24.0,29.80,SSW,212,5.0,12.0,79,0.00,,,0.00,,2013-02-17 21:31:00,
2013-02-17 15:41:00,30.0,24.0,29.80,SSW,212,5.0,12.0,79,0.00,,,0.00,,2013-02-17 21:41:00,
2013-02-17 15:53:00,31.0,25.0,29.79,SW,215,5.0,10.0,78,0.00,,,0.00,,2013-02-17 21:53:00,
2013-02-17 16:01:00,30.0,24.0,29.78,SSW,195,10.0,20.0,79,0.00,,,0.00,,2013-02-17 22:01:00,
2013-02-17 16:12:00,30.0,24.0,29.78,SSW,195,10.0,20.0,79,0.00,,,0.00,,2013-02-17 22:12:00,
2013-02-17 16:21:00,30.0,24.0,29.77,WSW,246,8.0,14.0,79,0.00,,,0.00,,2013-02-17 22:21:00,
2013-02-17 16:32:00,31.0,26.0,29.75,SW,216,7.0,10.0,80,0.00,,,0.00,,2013-02-17 22:32:00,
2013-02-17 16:41:00,31.0,26.0,29.75,SW,216,7.0,10.0,80,0.00,,,0.00,,2013-02-17 22:41:00,
2013-02-17 16:52:00,31.0,26.0,29.74,SW,229,10.0,13.0,80,0.00,,,0.00,,2013-02-17 22:52:00,
2013-02-17 17:02:00,31.0,26.0,29.74,SW,217,6.0,12.0,80,0.00,,,0.00,,2013-02-17 23:02:00,
2013-02-17 17:11:00,31.0,26.0,29.74,SW,217,6.0,12.0,80,0.00,,,0.00,,2013-02-17 23:11:00,
2013-02-17 17:21:00,30.0,25.0,29.74,West,267,8.0,19.0,81,0.00,,,0.00,,2013-02-17 23:21:00,
2013-02-17 17:32:00,30.0,25.0,29.74,SW,222,8.0,13.0,81,0.00,,,0.00,,2013-02-17 23:32:00,
2013-02-17 17:42:00,30.0,25.0,29.74,SW,222,8.0,13.0,81,0.00,,,0.00,,2013-02-17 23:42:00,
2013-02-17 17:52:00,30.0,25.0,29.73,SW,222,7.0,11.0,82,0.00,,,0.00,,2013-02-17 23:52:00,
2013-02-17 18:01:00,30.0,25.0,29.72,West,265,9.0,15.0,83,0.00,,,0.00,,2013-02-18 00:01:00,
2013-02-17 18:11:00,30.0,25.0,29.72,West,265,9.0,15.0,83,0.00,,,0.00,,2013-02-18 00:11:00,
2013-02-17 18:22:00,30.0,25.0,29.72,WSW,239,8.0,13.0,83,0.00,,,0.00,,2013-02-18 00:22:00,
2013-02-17 18:31:00,30.0,25.0,29.72,SW,222,7.0,7.0,83,0.00,,,0.00,,2013-02-18 00:31:00,
2013-02-17 18:41:00,30.0,25.0,29.72,SW,222,7.0,7.0,83,0.00,,,0.00,,2013-02-18 00:41:00,
2013-02-17 18:52:00,30.0,26.0,29.71,SW,233,7.0,17.0,84,0.00,,,0.00,,2013-02-18 00:52:00,
2013-02-17 19:01:00,30.0,26.0,29.70,South,180,5.0,9.0,85,0.00,,,0.00,,2013-02-18 01:01:00,
2013-02-17 19:11:00,30.0,26.0,29.70,South,180,5.0,9.0,85,0.00,,,0.00,,2013-02-18 01:11:00,
2013-02-17 19:21:00,30.0,26.0,29.71,SW,216,5.0,20.0,85,0.00,,,0.00,,2013-02-18 01:21:00,
2013-02-17 19:31:00,29.0,25.0,29.71,SSW,206,6.0,12.0,85,0.00,,,0.00,,2013-02-18 01:31:00,
2013-02-17 19:41:00,29.0,25.0,29.71,SSW,206,6.0,12.0,85,0.00,,,0.00,,2013-02-18 01:41:00,
2013-02-17 19:52:00,30.0,26.0,29.72,West,275,9.0,10.0,86,0.00,,,0.00,,2013-02-18 01:52:00,
2013-02-17 20:01:00,30.0,26.0,29.71,WSW,248,6.0,8.0,86,0.00,,,0.00,,2013-02-18 02:01:00,
2013-02-17 20:11:00,30.0,26.0,29.71,WSW,248,6.0,8.0,86,0.00,,,0.00,,2013-02-18 02:11:00,
2013-02-17 20:21:00,30.0,26.0,29.70,SSW,208,7.0,15.0,86,0.00,,,0.00,,2013-02-18 02:21:00,
2013-02-17 20:32:00,30.0,26.0,29.69,SW,216,10.0,14.0,86,0.00,,,0.00,,2013-02-18 02:32:00,
2013-02-17 20:41:00,30.0,26.0,29.69,SW,216,10.0,14.0,86,0.00,,,0.00,,2013-02-18 02:41:00,
2013-02-17 20:52:00,29.0,26.0,29.69,South,181,2.0,7.0,87,0.00,,,0.00,,2013-02-18 02:52:00,
2013-02-17 21:01:00,30.0,26.0,29.69,WSW,257,8.0,9.0,86,0.00,,,0.00,,2013-02-18 03:01:00,
2013-02-17 21:11:00,30.0,26.0,29.69,WSW,257,8.0,9.0,86,0.00,,,0.00,,2013-02-18 03:11:00,
2013-02-17 21:21:00,30.0,26.0,29.68,SSW,195,9.0,15.0,86,0.00,,,0.00,,2013-02-18 03:21:00,
2013-02-17 21:31:00,29.0,25.0,29.68,SSW,202,0.0,6.0,86,0.00,,,0.00,,2013-02-18 03:31:00,
2013-02-17 21:42:00,29.0,25.0,29.68,SSW,202,0.0,6.0,86,0.00,,,0.00,,2013-02-18 03:42:00,
2013-02-17 21:52:00,30.0,26.0,29.68,SE,135,2.0,10.0,86,0.00,,,0.00,,2013-02-18 03:52:00,
2013-02-17 22:01:00,29.0,25.0,29.67,SW,233,5.0,8.0,86,0.00,,,0.00,,2013-02-18 04:01:00,
2013-02-17 22:11:00,29.0,25.0,29.67,SW,233,5.0,8.0,86,0.00,,,0.00,,2013-02-18 04:11:00,
2013-02-17 22:21:00,29.0,25.0,29.66,South,187,3.0,9.0,85,0.00,,,0.00,,2013-02-18 04:21:00,
2013-02-17 22:32:00,30.0,26.0,29.65,SW,234,6.0,9.0,86,0.00,,,0.00,,2013-02-18 04:32:00,
2013-02-17 22:41:00,30.0,26.0,29.65,SW,234,6.0,9.0,86,0.00,,,0.00,,2013-02-18 04:41:00,
2013-02-17 22:52:00,30.0,26.0,29.66,SSE,156,0.0,5.0,86,0.00,,,0.00,,2013-02-18 04:52:00,
2013-02-17 23:01:00,30.0,26.0,29.65,South,172,0.0,9.0,85,0.00,,,0.00,,2013-02-18 05:01:00,
2013-02-17 23:11:00,30.0,26.0,29.65,South,172,0.0,9.0,85,0.00,,,0.00,,2013-02-18 05:11:00,
2013-02-17 23:21:00,30.0,26.0,29.65,SSW,208,0.0,6.0,85,0.00,,,0.00,,2013-02-18 05:21:00,
2013-02-17 23:31:00,30.0,26.0,29.63,SSW,199,0.0,13.0,85,0.00,,,0.00,,2013-02-18 05:31:00,
2013-02-17 23:41:00,30.0,26.0,29.63,SSW,199,0.0,13.0,85,0.00,,,0.00,,2013-02-18 05:41:00,
2013-02-17 23:52:00,30.0,26.0,29.62,SW,230,4.0,10.0,85,0.00,,,0.00,,2013-02-18 05:52:00,